Decorah, IA

10:57 AM CST on December 16, 2017 (GMT -0600)
Decorah Municipal

Weather History for KDEH - May, 2013

Change the Weather History Date:

Monday, May 27, 2013

  Actual Average Record
Temperature  
Mean Temperature 54 °F -  
Max Temperature 57 °F 73 °F 92 °F (1967)
Min Temperature 51 °F 51 °F 31 °F (1971)
Degree Days  
Heating Degree Days 11    
Growing Degree Days 4 (Base 50)    
Moisture  
Dew Point 55 °F    
Average Humidity 99    
Maximum Humidity 100    
Minimum Humidity 94    
Precipitation  
Precipitation 0.12 in - - ()
Sea Level Pressure  
Sea Level Pressure 29.91 in    
Wind  
Wind Speed 11 mph (ESE)    
Max Wind Speed 17 mph    
Max Gust Speed 25 mph    
Visibility 2 miles    
Events Fog , Rain    
Averages and records for this station are not official NWS values.
T = Trace of Precipitation, MM = Missing Value Source: NWS Daily Summary

Daily Weather History Graph

Daily Weather History Graph

Search for Another Location

Airport or City:

Trip Planner

Search our weather history database for the weather conditions in past years. The results will help you decide how hot, cold, wet, or windy it might be!

Date:

Astronomy

May. 27, 2013 Rise Set
Actual Time 5:32 AM CDT 8:36 PM CDT
Civil Twilight 4:58 AM CDT 9:10 PM CDT
Nautical Twilight 4:14 AM CDT 9:54 PM CDT
Astronomical Twilight 3:22 AM CDT 10:47 PM CDT
Moon 11:13 PM CDT (5/27) 8:11 AM CDT (5/27)
Length of Visible Light 16h 12m
Length of Day
15h 04m
Waning Gibbous, 91% of the Moon is Illuminated
May 27
Waning Gibbous
May 31
Last Quarter
Jun 8
New
Jun 16
First Quarter
Jun 23
Full

Hourly Weather History & Observations

Time (CDT) Temp. Dew Point Humidity Pressure Visibility Wind Dir Wind Speed Gust Speed Precip Events Conditions
12:15 AM 53.6 °F 51.8 °F 94% 30.06 in 5.0 mi East 12.7 mph - N/A   Overcast
12:35 AM 53.6 °F 51.8 °F 94% 30.06 in 4.0 mi ESE 10.4 mph - N/A   Overcast
12:55 AM 53.6 °F 51.8 °F 94% 30.05 in 4.0 mi ESE 9.2 mph 17.3 mph N/A   Overcast
1:15 AM 53.6 °F 53.6 °F 100% 30.05 in 2.0 mi ESE 9.2 mph 15.0 mph N/A   Overcast
1:35 AM 53.6 °F 53.6 °F 100% 30.05 in 2.5 mi ESE 10.4 mph - N/A   Overcast
1:55 AM 53.6 °F 53.6 °F 100% 30.05 in 3.0 mi ESE 8.1 mph - N/A   Overcast
2:15 AM 53.6 °F 53.6 °F 100% 30.04 in 3.0 mi East 11.5 mph - N/A   Overcast
2:35 AM 53.6 °F 53.6 °F 100% 30.02 in 3.0 mi ESE 9.2 mph 18.4 mph N/A   Overcast
2:55 AM 53.6 °F 53.6 °F 100% 30.00 in 2.5 mi ESE 12.7 mph 19.6 mph N/A   Overcast
3:15 AM 53.6 °F 53.6 °F 100% 30.01 in 2.5 mi ESE 10.4 mph 19.6 mph N/A   Overcast
3:35 AM 53.6 °F 51.8 °F 94% 30.00 in 2.5 mi ESE 12.7 mph - N/A   Overcast
3:55 AM 53.6 °F 51.8 °F 94% 30.00 in 2.5 mi SE 11.5 mph 19.6 mph N/A   Overcast
4:15 AM 53.6 °F 51.8 °F 94% 29.98 in 2.5 mi ESE 10.4 mph 19.6 mph N/A   Overcast
4:35 AM 51.8 °F 51.8 °F 100% 29.98 in 3.0 mi ESE 12.7 mph 19.6 mph N/A   Overcast
4:55 AM 51.8 °F 51.8 °F 100% 29.99 in - ESE 10.4 mph 17.3 mph N/A   Overcast
5:15 AM 51.8 °F 51.8 °F 100% 29.98 in 3.0 mi ESE 11.5 mph 20.7 mph N/A   Overcast
5:35 AM 51.8 °F 51.8 °F 100% 29.97 in 2.0 mi ESE 11.5 mph 18.4 mph N/A Rain Light Rain
5:55 AM 51.8 °F 51.8 °F 100% 29.98 in 1.5 mi ESE 11.5 mph - N/A   Overcast
6:15 AM 51.8 °F 51.8 °F 100% 29.98 in 1.8 mi ESE 13.8 mph - N/A   Overcast
6:35 AM 51.8 °F 51.8 °F 100% 29.98 in 1.8 mi ESE 8.1 mph 15.0 mph N/A   Overcast
6:55 AM 53.6 °F 51.8 °F 94% 29.98 in 1.8 mi ESE 8.1 mph 15.0 mph N/A   Overcast
7:15 AM 53.6 °F 51.8 °F 94% 29.98 in 1.8 mi ESE 9.2 mph 17.3 mph N/A   Overcast
7:35 AM 53.6 °F 53.6 °F 100% 29.98 in 1.8 mi ESE 8.1 mph - N/A   Overcast
7:55 AM 53.6 °F 53.6 °F 100% 29.98 in 1.8 mi ESE 6.9 mph 13.8 mph N/A   Overcast
8:15 AM 53.6 °F 53.6 °F 100% 29.96 in 1.5 mi ESE 10.4 mph - N/A   Overcast
8:35 AM 53.6 °F 53.6 °F 100% 29.93 in 0.8 mi ESE 12.7 mph 19.6 mph N/A   Overcast
8:55 AM 53.6 °F 53.6 °F 100% 29.92 in 1.5 mi ESE 12.7 mph 21.9 mph N/A   Overcast
9:15 AM 53.6 °F 53.6 °F 100% 29.90 in 1.2 mi ESE 15.0 mph 21.9 mph N/A   Overcast
9:35 AM 53.6 °F 53.6 °F 100% 29.90 in 0.8 mi ESE 11.5 mph 23.0 mph N/A   Overcast
9:55 AM 53.6 °F 53.6 °F 100% 29.90 in 1.0 mi East 13.8 mph 21.9 mph N/A   Overcast
10:15 AM 53.6 °F 53.6 °F 100% 29.92 in 1.2 mi ESE 11.5 mph 19.6 mph N/A   Overcast
10:35 AM 55.4 °F 55.4 °F 100% 29.94 in 1.5 mi ESE 10.4 mph - N/A   Overcast
10:55 AM 55.4 °F 55.4 °F 100% 29.94 in 1.0 mi ESE 9.2 mph - 0.01 in Rain Light Rain
11:15 AM 55.4 °F 55.4 °F 100% 29.94 in 1.2 mi East 10.4 mph - N/A Rain Rain
11:35 AM 55.4 °F 55.4 °F 100% 29.92 in 1.8 mi East 10.4 mph - N/A Rain Light Rain
11:55 AM 55.4 °F 55.4 °F 100% 29.91 in 3.0 mi ENE 12.7 mph - 0.11 in Rain Light Rain
12:15 PM 55.4 °F 55.4 °F 100% 29.92 in 5.0 mi East 10.4 mph 18.4 mph N/A   Overcast
12:35 PM 55.4 °F 55.4 °F 100% 29.92 in 5.0 mi East 12.7 mph - N/A   Overcast
12:55 PM 55.4 °F 55.4 °F 100% 29.91 in 3.0 mi East 13.8 mph - N/A   Overcast
1:15 PM 55.4 °F 55.4 °F 100% 29.90 in 1.5 mi East 13.8 mph - N/A   Overcast
1:35 PM 55.4 °F 55.4 °F 100% 29.88 in 0.8 mi East 15.0 mph 23.0 mph N/A   Overcast
1:55 PM 57.2 °F 57.2 °F 100% 29.87 in 0.8 mi East 16.1 mph - N/A   Overcast
2:15 PM 57.2 °F 57.2 °F 100% 29.86 in 1.5 mi East 17.3 mph 23.0 mph N/A   Overcast
2:35 PM 57.2 °F 57.2 °F 100% 29.86 in 1.2 mi East 15.0 mph 25.3 mph N/A   Overcast
2:55 PM 57.2 °F 57.2 °F 100% 29.87 in 1.2 mi ESE 12.7 mph 20.7 mph N/A   Overcast
3:15 PM 57.2 °F 57.2 °F 100% 29.87 in 0.8 mi East 12.7 mph - N/A   Overcast
3:35 PM 57.2 °F 57.2 °F 100% 29.87 in 0.8 mi East 12.7 mph - N/A   Overcast
3:55 PM 57.2 °F 57.2 °F 100% 29.86 in 0.8 mi East 12.7 mph - N/A   Overcast
4:15 PM 57.2 °F 57.2 °F 100% 29.86 in 0.8 mi East 10.4 mph - N/A   Overcast
4:35 PM 57.2 °F 57.2 °F 100% 29.85 in 0.5 mi East 9.2 mph - N/A   Overcast
4:55 PM 57.2 °F 57.2 °F 100% 29.85 in 0.5 mi East 6.9 mph 12.7 mph N/A   Overcast
5:15 PM 57.2 °F 57.2 °F 100% 29.84 in 1.0 mi East 11.5 mph - N/A   Overcast
5:35 PM 57.2 °F 57.2 °F 100% 29.84 in 0.5 mi East 12.7 mph - N/A   Overcast
5:55 PM 57.2 °F 57.2 °F 100% 29.84 in 0.8 mi East 12.7 mph - N/A   Overcast
6:15 PM 57.2 °F 57.2 °F 100% 29.84 in 0.5 mi East 11.5 mph 19.6 mph N/A   Overcast
6:35 PM 55.4 °F 55.4 °F 100% 29.83 in 0.5 mi East 13.8 mph 23.0 mph N/A   Overcast
6:55 PM 55.4 °F 55.4 °F 100% 29.82 in 0.5 mi East 16.1 mph 21.9 mph N/A   Overcast
7:15 PM 55.4 °F 55.4 °F 100% 29.83 in 0.8 mi East 13.8 mph - N/A   Overcast
7:35 PM 55.4 °F 55.4 °F 100% 29.83 in 1.0 mi East 12.7 mph 20.7 mph N/A   Overcast
7:55 PM 55.4 °F 55.4 °F 100% 29.83 in 0.5 mi ESE 13.8 mph 20.7 mph N/A   Overcast
8:15 PM 55.4 °F 55.4 °F 100% 29.83 in 0.5 mi East 13.8 mph - N/A Fog Fog
8:35 PM 55.4 °F 55.4 °F 100% 29.82 in 0.5 mi East 12.7 mph - N/A Fog Fog
8:55 PM 55.4 °F 55.4 °F 100% 29.82 in 1.8 mi East 15.0 mph - N/A   Overcast
9:15 PM 55.4 °F 55.4 °F 100% 29.84 in 2.5 mi East 5.8 mph 12.7 mph N/A   Overcast
9:35 PM 55.4 °F 55.4 °F 100% 29.84 in 3.0 mi East 11.5 mph - N/A   Overcast
9:55 PM 55.4 °F 55.4 °F 100% 29.84 in 3.0 mi East 11.5 mph - N/A   Overcast
10:15 PM 55.4 °F 55.4 °F 100% 29.83 in 3.0 mi East 11.5 mph - N/A   Overcast
10:35 PM 55.4 °F 55.4 °F 100% 29.83 in 3.0 mi East 9.2 mph - N/A   Overcast
10:55 PM 55.4 °F 55.4 °F 100% 29.83 in 2.5 mi East 9.2 mph - N/A   Overcast
11:15 PM 55.4 °F 55.4 °F 100% 29.84 in 2.5 mi East 8.1 mph - N/A   Overcast
11:35 PM 55.4 °F 55.4 °F 100% 29.83 in 1.5 mi East 9.2 mph - N/A   Overcast
11:55 PM 53.6 °F 53.6 °F 100% 29.82 in 1.2 mi ESE 9.2 mph - N/A   Overcast